Location: Crocus Hill
(18.2167°N, 63.0667°W)
Time: 20:40:29
(UTC+00:00)

Cosmos 2322 - Pass Details

Date: 26 January 2020
Orbit: 842 x 853 km, 71.0° (Epoch: 19 February)

Event Time Altitude Azimuth Distance (km) Brightness Sun altitude
Rises 09:49:52 0° 195° (SSW) 3,396 6.9 -13.7°
Reaches altitude 10° 09:52:18 10° 194° (SSW) 2,461 6.1 -13.1°
Maximum altitude 09:57:58 85° 106° (ESE) 850 3.8 -11.9°
Drops below altitude 10° 10:03:37 10° 18° (NNE) 2,458 6.2 -10.6°
Sets 10:06:03 0° 18° (NNE) 3,393 6.9 -10.0°
